SCP
-0 -0 -0 -0 -0 -0 -0 -0 -0 -0 -0 -0 -0 -0 0 0 0 -0 0 0 0 0 0 0 0 -0 0 0 0 0 0 0 0 0 0 0 0 0 0 0 0 0 0 0 0 0 0
-0 -0 -0 -0 -0 -0 -0 -0 -0 -0 -0 -0 -0 -0 0 0 0 -0 0 0 0 0 0 0 0 0 0 0 0 0 0 0 0 -0 -0 -0 -0 0 0 0 0 0 0 0 0 0 0
-0 -0 -0 -0 0 0 -0 -0 -0 -0 -0 -0 0 0 0 -0 -0 -0 0 0 0 0 0 0 0 0 0 0 0 0 0 0 0 0 -0 -0 0 0 0 0 -0 0 0 0 0 0 0
-0 -0 -0 -0 0 0 -0 -0 -0 -0 0 0 0 0 0 -0 -0 -0 0 0 0 0 0 0 0 0 0 0 0 0 0 0 0 0 0 -0 0 0 0 0 0 0 0 0 0 0 0
-0 -0 -0 0 0 -0 -0 -0 -0 0 0 0 0 0 0 -0 -0 0 0 0 0 0 0 0 0 0 0 0 0 0 0 0 0 0 0 0 0 0 0 0 0 0 0 0 0 -0 0
-0 -0 -0 -0 -0 -0 -0 -0 0 0 0 0 0 0 0 0 -0 0 0 0 0 0 0 0 0 0 -0 -0 0 0 0 0 0 0 0 0 0 0 0 0 0 0 0 0 -0 0 0
-0 -0 -0 -0 -0 -0 -0 -0 0 0 0 0 0 0 0 0 0 0 0 0 0 0 0 -0 -0 0 -0 0 0 0 0 0 0 0 0 -0 0 0 0 0 -0 0 0 0 -0 0 0
-0 -0 -0 -0 -0 -0 -0 0 0 0 0 0 0 0 0 0 -0 -0 0 0 0 0 0 -0 0 0 0 0 0 0 0 0 0 0 0 0 0 0 0 0 0 0 0 -0 -0 0 -0
-0 -0 -0 -0 -0 0 0 0 0 0 0 0 0 0 0 0 -0 0 0 0 0 0 0 0 0 0 0 0 0 0 0 0 0 0 -0 -0 0 0 -0 0 0 0 0 -0 -0 0 -0
-0 -0 0 0 0 0 0 0 0 0 0 0 0 0 -0 -0 0 0 0 0 0 0 -0 0 0 0 0 0 0 0 0 0 0 0 -0 -0 0 0 -0 -0 0 0 0 0 0 0 0
0 0 0 0 0 0 0 0 0 0 0 0 0 0 -0 0 0 0 0 0 0 0 -0 0 0 0 0 0 0 0 0 0 0 -0 -0 -0 -0 0 0 0 -0 -0 0 0 0 0 0
0 0 0 0 0 0 0 0 0 0 0 0 0 0 -0 0 0 0 0 -0 0 -0 0 0 0 0 0 -0 0 0 0 0 0 0 0 0 0 0 0 -0 -0 -0 0 0 0 0 0
0 0 0 0 0 0 0 0 0 0 0 0 0 0 -0 -0 0 0 -0 -0 -0 0 0 0 0 0 -0 0 0 0 0 0 0 0 0 -0 -0 0 0 0 -0 0 0 0 0 0 0
0 0 0 0 0 0 0 0 0 0 0 0 0 0 0 0 0 0 0 -0 -0 0 0 0 0 0 -0 0 0 0 -0 0 0 0 0 -0 0 0 0 0 0 0 0 0 0 0 0
0 0 0 0 0 0 0 0 0 0 0 0 0 0 0 0 0 0 0 0 0 0 0 0 0 0 0 0 0 0 0 0 0 0 0 0 0 0 -0 0 0 0 0 0 0 0 0
0 0 0 0 0 0 0 0 0 0 0 0 0 0 0 0 -0 0 -0 0 0 0 0 0 0 0 0 0 0 0 0 0 -0 0 0 0 -0 0 0 0 0 0 0 0 0 0 0
0 0 0 0 0 0 0 0 0 0 0 0 0 0 0 0 0 0 0 0 0 0 0 0 0 0 0 0 0 0 0 0 0 0 0 0 0 0 0 0 0 0 0 0 0 0 0
0 0 0 0 0 0 0 0 0 0 -0 0 0 0 0 0 0 0 0 0 0 0 0 0 0 0 0 0 0 0 0 0 0 0 0 0 0 0 0 -0 -0 0 0 0 0 -0 0
0 0 0 0 0 0 0 0 0 0 0 0 0 -0 0 0 0 0 0 0 0 0 0 0 0 0 0 0 0 0 0 0 0 0 0 0 0 0 -0 0 0 -0 0 0 0 0 0
0 0 0 0 0 0 0 0 0 0 0 0 0 0 0 0 0 0 0 0 0 0 0 0 0 0 0 0 0 0 -0 0 0 0 0 0 0 0 -0 -0 0 0 -0 -0 0 0 -0
0 0 0 0 0 0 0 0 0 0 0 0 0 0 0 0 0 0 0 0 0 0 0 0 0 0 0 0 0 0 -0 0 -0 0 0 0 0 0 -0 -0 -0 -0 0 0 -0 0 0
0 0 0 0 0 0 0 0 0 0 0 0 0 0 0 0 0 0 0 0 0 0 0 0 0 0 0 0 0 0 -0 0 0 0 0 0 -0 -0 -0 -0 0 0 0 0 0 0 0
0 0 0 0 0 0 0 0 0 0 0 0 0 0 0 0 0 0 0 0 0 0 0 0 0 0 0 0 0 0 0 0 0 0 0 0 -0 0 -0 -0 -0 0 0 0 0 0 0
0 0 0 0 0 0 0 0 0 0 0 0 0 0 0 0 0 0 0 0 0 0 0 0 0 0 0 0 0 0 0 0 0 0 0 0 -0 0 0 -0 0 0 0 0 0 0 0
0 0 0 0 0 0 0 0 0 0 0 0 0 0 0 0 0 0 0 0 0 0 0 0 0 0 0 0 0 0 -0 0 0 0 0 0 0 0 0 0 0 0 0 0 0 -0 -0
0 0 0 0 0 0 0 0 0 0 0 0 0 0 0 0 0 0 0 0 0 0 0 0 0 0 0 0 0 0 -0 -0 0 0 0 0 0 -0 -0 0 0 0 -0 -0 0 -0 -0
0 0 0 0 0 0 0 0 0 0 0 0 0 0 0 0 0 0 0 0 0 0 0 0 0 0 0 0 0 0 -0 -0 0 0 0 0 0 -0 0 0 0 -0 0 -0 -0 -0 -0
0 0 0 0 0 0 0 0 0 0 0 0 0 0 0 0 0 0 0 0 0 0 0 0 0 0 0 0 0 0 -0 0 0 0 0 -0 -0 -0 0 0 0 -0 -0 -0 -0 0 -0
0 0 0 0 0 0 0 0 0 0 0 0 0 0 0 0 0 0 0 0 0 0 0 0 0 0 0 0 0 0 -0 0 0 0 0 -0 0 0 0 0 -0 -0 -0 -0 0 0 0
Wind_Speed_500mb
53 54 54 54 54 55 56 56 55 55 56 53 47 41 33 28 23 24 26 30 32 35 25 25 23 12 8 13 4 8 10 9 14 13 17 19 22 25 27 30 35 32 32 39 37 43 49
52 53 55 55 56 58 60 62 62 61 61 57 49 42 33 26 23 24 26 31 37 33 20 26 19 12 6 23 3 6 8 11 17 16 23 20 25 27 24 31 30 41 44 43 47 35 38
51 52 53 56 58 61 63 66 68 70 67 61 54 44 37 27 23 25 27 33 34 34 21 22 24 11 16 21 4 7 15 17 20 22 25 24 26 24 32 34 37 35 34 35 39 39 40
52 53 52 57 61 65 68 70 73 75 74 70 60 48 41 28 23 27 29 35 27 29 20 24 18 8 17 9 6 19 14 24 26 28 26 28 29 34 34 38 42 40 39 37 36 42 50
52 53 53 59 63 66 69 72 77 79 79 75 66 53 42 26 21 29 30 36 29 24 14 18 4 7 24 9 18 11 19 29 24 28 29 24 26 35 36 32 31 36 37 44 45 45 34
52 53 55 59 62 65 69 74 78 81 82 76 68 55 40 22 21 28 32 30 32 17 8 19 17 15 25 21 16 26 33 41 34 28 33 37 36 27 29 27 29 37 35 40 38 35 20
52 51 53 58 62 66 71 74 77 82 85 78 69 49 32 21 24 27 24 25 27 3 11 39 28 34 40 25 20 29 34 26 32 26 30 39 31 31 42 36 42 43 46 50 47 47 39
53 53 54 59 64 67 71 73 77 81 85 81 69 42 26 23 20 18 22 18 26 28 33 28 19 19 22 23 26 35 33 18 24 29 34 32 39 44 46 44 45 46 50 53 52 47 47
52 53 55 60 64 68 71 73 75 81 85 86 67 36 25 22 16 21 17 22 30 28 17 15 9 15 12 18 34 53 11 25 33 37 40 41 47 47 43 42 40 44 48 49 49 48 54
54 56 58 61 65 70 73 72 74 80 85 87 68 32 22 25 19 22 24 35 29 17 9 8 11 3 19 31 34 17 20 22 34 41 42 43 42 45 47 49 41 50 43 43 49 44 37
55 58 61 63 65 70 73 74 75 80 85 86 68 31 20 23 27 23 36 32 23 3 5 16 11 11 26 39 32 31 40 20 28 38 38 49 49 51 53 54 48 52 47 32 34 41 34
55 57 60 63 66 69 72 75 77 81 82 83 69 31 22 18 28 29 35 27 16 11 8 18 36 43 40 45 30 48 43 38 47 39 40 52 65 48 47 53 53 50 49 41 31 26 30
56 59 62 64 67 69 72 74 77 80 81 83 66 25 24 16 26 37 28 23 13 9 38 27 47 48 43 37 36 40 43 41 32 30 32 41 44 51 22 41 50 28 28 7 17 18 32
56 59 61 63 66 68 72 73 74 76 81 85 66 19 11 22 34 30 20 20 22 37 34 40 42 48 35 47 45 42 53 44 31 22 16 21 23 20 18 19 11 15 15 12 13 9 16
58 61 63 65 67 68 70 75 79 79 79 77 62 16 14 17 30 18 23 10 16 27 30 38 45 31 39 46 40 48 49 29 19 26 12 13 15 53 58 36 30 8 14 5 13 22 28
54 58 61 62 64 67 69 74 77 79 81 76 48 14 9 30 25 19 20 7 17 26 31 31 32 33 47 45 40 39 29 25 46 16 13 8 28 32 41 37 36 27 18 9 9 12 33
54 57 60 62 64 65 67 71 75 78 80 80 29 20 7 39 27 33 15 25 32 32 31 23 43 41 40 35 42 40 20 35 15 24 25 19 13 26 33 17 33 9 11 16 16 17 13
54 56 57 60 62 62 63 66 69 76 79 73 27 16 26 38 17 24 21 36 43 22 30 28 30 32 37 46 30 38 19 36 33 6 11 9 8 16 41 54 44 36 29 30 13 18 24
54 56 55 55 58 61 62 63 64 63 74 71 30 38 21 33 13 16 31 32 31 31 26 30 24 37 44 37 31 21 42 49 47 12 8 10 7 15 23 1 12 13 22 32 21 17 35
55 53 58 58 56 59 65 64 58 54 60 51 18 15 42 37 43 34 33 32 35 39 32 32 36 43 40 44 44 46 51 16 40 10 25 16 9 18 28 43 40 40 28 32 35 19 35
56 56 57 59 56 60 63 66 58 53 46 35 17 21 26 17 30 37 35 37 35 39 42 47 29 39 45 43 48 48 56 55 41 15 6 5 14 30 44 48 50 53 50 45 41 41 37
57 57 59 57 57 56 57 58 61 50 46 21 23 32 29 48 46 45 32 31 41 41 41 33 37 45 42 42 45 58 59 50 23 9 6 7 9 32 47 51 34 37 8 19 20 31 29
63 62 62 61 62 55 52 52 53 51 38 21 29 27 25 29 31 29 30 37 43 48 27 51 42 42 43 47 68 78 76 68 16 10 5 4 8 10 18 38 47 4 14 22 23 30 17
58 61 62 61 56 54 52 45 46 43 33 32 22 23 13 16 23 32 47 51 43 41 44 45 44 34 47 66 75 68 43 21 20 12 7 4 18 7 19 35 17 10 18 20 20 37 15
59 60 60 58 55 54 50 43 46 42 34 34 30 12 8 10 36 40 51 41 49 48 40 40 46 41 49 49 32 33 24 6 11 7 11 18 17 9 9 23 9 14 28 24 13 35 6
55 55 54 53 49 48 47 43 40 43 41 38 32 20 17 13 11 54 50 54 31 30 24 40 45 50 31 24 23 23 20 16 15 20 8 33 18 12 18 17 11 14 49 64 14 11 33
49 50 49 48 46 44 43 42 40 43 39 40 37 29 19 16 37 40 42 35 41 34 22 43 50 44 36 20 20 17 18 23 12 21 23 21 18 17 19 12 5 34 45 72 11 18 63
46 48 48 48 46 45 44 42 41 44 41 40 37 33 26 17 59 26 28 52 58 47 25 38 23 17 17 15 10 13 12 10 11 26 15 10 13 11 15 10 10 50 23 14 24 52 49
49 48 48 47 43 38 42 43 40 42 42 43 44 32 26 33 57 84 53 42 42 41 46 26 30 22 9 8 9 7 15 10 22 10 12 7 6 9 7 9 18 34 29 40 49 50 43
Wind_Direction_500mb
47 45 41 37 32 27 21 15 11 8 4 1 357 354 351 355 356 354 352 353 349 349 340 339 334 325 302 272 261 261 318 314 358 319 303 303 299 288 283 285 284 275 276 279 281 280 278
43 40 36 32 28 23 18 13 9 5 1 357 355 350 343 343 344 345 345 345 345 340 326 353 331 310 309 270 63 300 354 306 304 303 293 292 298 314 307 279 281 289 296 289 289 285 278
37 33 32 29 24 20 15 11 7 3 2 359 354 347 340 329 332 334 339 341 342 345 333 308 332 284 278 271 243 277 283 290 295 290 289 286 291 288 296 299 283 291 281 278 265 262 261
33 31 30 24 20 17 13 9 5 2 359 357 353 347 337 322 326 330 331 337 338 343 349 320 311 250 271 230 244 277 289 296 293 273 269 282 285 286 280 282 284 278 272 271 268 253 244
29 27 24 21 16 14 12 8 5 1 358 355 353 348 340 328 326 333 329 331 327 328 357 360 57 252 283 234 271 266 287 301 291 296 266 270 276 275 283 276 269 255 253 252 257 245 245
25 22 20 17 14 11 9 7 5 2 358 355 352 349 345 341 336 336 337 326 323 318 297 328 274 264 251 261 303 292 289 286 299 289 277 246 243 246 247 245 257 272 283 286 284 292 293
20 19 17 14 11 7 5 5 4 2 359 356 353 351 352 351 346 344 359 330 347 321 274 289 274 260 295 286 283 292 291 299 295 263 262 262 235 240 256 265 277 274 272 277 281 288 278
16 13 11 9 6 4 2 1 2 2 2 357 354 353 357 354 0 356 352 340 352 316 309 284 265 274 279 279 287 291 308 301 273 258 262 261 251 256 261 249 261 276 279 276 278 280 278
13 10 7 4 3 2 1 0 0 1 359 357 353 352 354 352 345 339 337 343 333 322 286 268 261 284 317 306 280 297 301 289 279 281 285 278 282 291 283 268 255 253 259 271 277 282 279
11 8 5 2 360 360 359 358 358 358 357 356 354 352 354 356 351 336 345 333 330 318 274 139 173 88 305 295 291 286 296 286 295 283 287 282 293 284 273 271 272 276 267 273 295 269 265
7 7 5 2 359 358 358 357 356 353 352 355 355 350 0 5 358 350 335 330 325 313 269 12 337 296 293 307 298 337 326 247 264 279 286 280 284 280 275 274 280 277 290 274 283 272 277
3 2 1 0 360 358 357 357 354 354 352 353 352 345 356 354 335 326 327 324 318 243 337 343 357 336 331 303 347 345 333 312 294 290 285 285 276 268 265 260 256 267 264 264 256 269 260
358 357 357 355 356 356 355 355 355 353 351 349 348 345 9 20 335 329 324 318 265 269 357 6 336 337 312 306 345 346 338 328 296 292 281 296 297 286 300 297 252 337 283 267 231 216 248
353 353 353 352 352 353 353 352 351 352 351 347 348 358 1 11 323 322 322 282 277 353 339 340 335 317 315 355 348 340 341 326 342 331 303 280 303 1 1 21 348 304 268 226 283 248 293
350 349 348 349 349 351 351 351 350 352 352 344 347 346 347 340 329 322 304 331 346 331 335 335 329 321 341 326 350 348 339 324 347 26 336 313 273 327 306 300 277 248 236 300 285 276 272
346 346 345 346 347 348 350 352 353 352 354 350 344 345 266 337 323 322 290 280 319 353 340 338 326 326 319 343 340 338 328 312 331 70 11 286 289 285 291 292 270 246 255 216 196 258 264
343 344 344 343 344 347 350 352 352 350 355 355 356 311 11 346 321 291 309 356 335 341 343 325 321 317 318 326 329 320 304 302 335 329 330 302 225 281 302 247 263 228 218 211 252 244 269
338 341 341 341 341 345 349 352 353 349 351 0 351 331 346 348 334 360 352 332 317 311 315 321 316 313 318 317 322 318 280 297 320 269 266 262 277 277 286 281 271 272 232 231 227 247 240
332 333 339 339 341 345 348 350 354 358 353 350 326 313 5 345 350 327 335 329 325 324 321 331 315 312 305 313 308 279 287 303 297 322 241 195 236 299 297 297 45 273 240 230 243 258 257
325 331 336 337 340 343 345 347 351 353 352 344 310 321 341 331 351 341 334 316 319 333 338 327 313 314 313 326 314 302 316 304 302 217 273 163 235 231 266 282 303 291 264 262 243 252 263
324 327 326 330 331 334 338 340 345 347 358 351 335 349 360 318 323 316 298 307 322 332 330 324 325 320 319 310 307 321 315 316 329 94 125 236 262 274 274 270 271 273 279 273 257 246 254
312 316 318 318 321 322 328 332 337 346 352 350 351 338 322 306 322 308 315 346 327 323 324 325 321 313 309 314 333 321 315 305 311 157 261 223 273 296 290 285 272 265 25 1 348 318 306
306 305 310 312 315 312 319 325 335 343 0 337 335 325 311 296 329 323 329 321 322 329 325 318 308 312 324 337 322 306 289 279 257 163 238 240 291 297 281 310 308 89 50 5 310 294 288
307 306 307 310 313 312 311 315 324 327 344 332 318 324 302 290 308 315 312 328 321 321 303 309 319 331 335 326 313 311 335 53 135 199 160 239 287 265 288 303 307 76 9 343 297 290 307
305 306 307 310 310 308 307 308 310 314 322 320 321 306 288 280 307 302 322 321 315 321 319 316 333 347 335 322 324 334 328 348 13 254 157 209 274 275 278 311 276 29 337 326 324 297 261
307 307 309 311 315 314 310 303 297 302 308 309 310 276 251 283 262 315 305 310 320 319 314 322 324 335 325 321 326 337 326 332 329 319 324 341 307 262 299 301 303 352 335 327 314 259 335
314 315 313 312 316 318 315 306 296 297 302 312 302 298 249 261 283 302 301 303 306 303 295 308 343 318 347 331 336 336 322 344 344 324 332 334 346 325 324 298 91 5 347 325 19 318 316
313 315 317 313 312 318 319 315 297 294 300 308 298 293 265 251 291 281 292 302 296 288 286 325 326 3 323 352 344 346 326 322 314 313 322 326 335 345 328 306 334 7 348 17 295 304 318
310 311 312 312 312 317 323 322 308 297 293 294 290 287 286 243 276 298 297 293 263 266 271 285 290 311 334 336 343 314 309 302 319 312 341 348 25 312 294 316 351 350 324 327 332 315 327
Wind_Speed_850mb
53 54 54 54 54 55 56 56 55 55 56 53 47 41 33 28 23 24 26 30 32 35 25 25 23 12 8 13 4 8 10 9 14 13 17 19 22 25 27 30 35 32 32 39 37 43 49
52 53 55 55 56 58 60 62 62 61 61 57 49 42 33 26 23 24 26 31 37 33 20 26 19 12 6 23 3 6 8 11 17 16 23 20 25 27 24 31 30 41 44 43 47 35 38
51 52 53 56 58 61 63 66 68 70 67 61 54 44 37 27 23 25 27 33 34 34 21 22 24 11 16 21 4 7 15 17 20 22 25 24 26 24 32 34 37 35 34 35 39 39 40
52 53 52 57 61 65 68 70 73 75 74 70 60 48 41 28 23 27 29 35 27 29 20 24 18 8 17 9 6 19 14 24 26 28 26 28 29 34 34 38 42 40 39 37 36 42 50
52 53 53 59 63 66 69 72 77 79 79 75 66 53 42 26 21 29 30 36 29 24 14 18 4 7 24 9 18 11 19 29 24 28 29 24 26 35 36 32 31 36 37 44 45 45 34
52 53 55 59 62 65 69 74 78 81 82 76 68 55 40 22 21 28 32 30 32 17 8 19 17 15 25 21 16 26 33 41 34 28 33 37 36 27 29 27 29 37 35 40 38 35 20
52 51 53 58 62 66 71 74 77 82 85 78 69 49 32 21 24 27 24 25 27 3 11 39 28 34 40 25 20 29 34 26 32 26 30 39 31 31 42 36 42 43 46 50 47 47 39
53 53 54 59 64 67 71 73 77 81 85 81 69 42 26 23 20 18 22 18 26 28 33 28 19 19 22 23 26 35 33 18 24 29 34 32 39 44 46 44 45 46 50 53 52 47 47
52 53 55 60 64 68 71 73 75 81 85 86 67 36 25 22 16 21 17 22 30 28 17 15 9 15 12 18 34 53 11 25 33 37 40 41 47 47 43 42 40 44 48 49 49 48 54
54 56 58 61 65 70 73 72 74 80 85 87 68 32 22 25 19 22 24 35 29 17 9 8 11 3 19 31 34 17 20 22 34 41 42 43 42 45 47 49 41 50 43 43 49 44 37
55 58 61 63 65 70 73 74 75 80 85 86 68 31 20 23 27 23 36 32 23 3 5 16 11 11 26 39 32 31 40 20 28 38 38 49 49 51 53 54 48 52 47 32 34 41 34
55 57 60 63 66 69 72 75 77 81 82 83 69 31 22 18 28 29 35 27 16 11 8 18 36 43 40 45 30 48 43 38 47 39 40 52 65 48 47 53 53 50 49 41 31 26 30
56 59 62 64 67 69 72 74 77 80 81 83 66 25 24 16 26 37 28 23 13 9 38 27 47 48 43 37 36 40 43 41 32 30 32 41 44 51 22 41 50 28 28 7 17 18 32
56 59 61 63 66 68 72 73 74 76 81 85 66 19 11 22 34 30 20 20 22 37 34 40 42 48 35 47 45 42 53 44 31 22 16 21 23 20 18 19 11 15 15 12 13 9 16
58 61 63 65 67 68 70 75 79 79 79 77 62 16 14 17 30 18 23 10 16 27 30 38 45 31 39 46 40 48 49 29 19 26 12 13 15 53 58 36 30 8 14 5 13 22 28
54 58 61 62 64 67 69 74 77 79 81 76 48 14 9 30 25 19 20 7 17 26 31 31 32 33 47 45 40 39 29 25 46 16 13 8 28 32 41 37 36 27 18 9 9 12 33
54 57 60 62 64 65 67 71 75 78 80 80 29 20 7 39 27 33 15 25 32 32 31 23 43 41 40 35 42 40 20 35 15 24 25 19 13 26 33 17 33 9 11 16 16 17 13
54 56 57 60 62 62 63 66 69 76 79 73 27 16 26 38 17 24 21 36 43 22 30 28 30 32 37 46 30 38 19 36 33 6 11 9 8 16 41 54 44 36 29 30 13 18 24
54 56 55 55 58 61 62 63 64 63 74 71 30 38 21 33 13 16 31 32 31 31 26 30 24 37 44 37 31 21 42 49 47 12 8 10 7 15 23 1 12 13 22 32 21 17 35
55 53 58 58 56 59 65 64 58 54 60 51 18 15 42 37 43 34 33 32 35 39 32 32 36 43 40 44 44 46 51 16 40 10 25 16 9 18 28 43 40 40 28 32 35 19 35
56 56 57 59 56 60 63 66 58 53 46 35 17 21 26 17 30 37 35 37 35 39 42 47 29 39 45 43 48 48 56 55 41 15 6 5 14 30 44 48 50 53 50 45 41 41 37
57 57 59 57 57 56 57 58 61 50 46 21 23 32 29 48 46 45 32 31 41 41 41 33 37 45 42 42 45 58 59 50 23 9 6 7 9 32 47 51 34 37 8 19 20 31 29
63 62 62 61 62 55 52 52 53 51 38 21 29 27 25 29 31 29 30 37 43 48 27 51 42 42 43 47 68 78 76 68 16 10 5 4 8 10 18 38 47 4 14 22 23 30 17
58 61 62 61 56 54 52 45 46 43 33 32 22 23 13 16 23 32 47 51 43 41 44 45 44 34 47 66 75 68 43 21 20 12 7 4 18 7 19 35 17 10 18 20 20 37 15
59 60 60 58 55 54 50 43 46 42 34 34 30 12 8 10 36 40 51 41 49 48 40 40 46 41 49 49 32 33 24 6 11 7 11 18 17 9 9 23 9 14 28 24 13 35 6
55 55 54 53 49 48 47 43 40 43 41 38 32 20 17 13 11 54 50 54 31 30 24 40 45 50 31 24 23 23 20 16 15 20 8 33 18 12 18 17 11 14 49 64 14 11 33
49 50 49 48 46 44 43 42 40 43 39 40 37 29 19 16 37 40 42 35 41 34 22 43 50 44 36 20 20 17 18 23 12 21 23 21 18 17 19 12 5 34 45 72 11 18 63
46 48 48 48 46 45 44 42 41 44 41 40 37 33 26 17 59 26 28 52 58 47 25 38 23 17 17 15 10 13 12 10 11 26 15 10 13 11 15 10 10 50 23 14 24 52 49
49 48 48 47 43 38 42 43 40 42 42 43 44 32 26 33 57 84 53 42 42 41 46 26 30 22 9 8 9 7 15 10 22 10 12 7 6 9 7 9 18 34 29 40 49 50 43
Wind_Direction_850mb
47 45 41 37 32 27 21 15 11 8 4 1 357 354 351 355 356 354 352 353 349 349 340 339 334 325 302 272 261 261 318 314 358 319 303 303 299 288 283 285 284 275 276 279 281 280 278
43 40 36 32 28 23 18 13 9 5 1 357 355 350 343 343 344 345 345 345 345 340 326 353 331 310 309 270 63 300 354 306 304 303 293 292 298 314 307 279 281 289 296 289 289 285 278
37 33 32 29 24 20 15 11 7 3 2 359 354 347 340 329 332 334 339 341 342 345 333 308 332 284 278 271 243 277 283 290 295 290 289 286 291 288 296 299 283 291 281 278 265 262 261
33 31 30 24 20 17 13 9 5 2 359 357 353 347 337 322 326 330 331 337 338 343 349 320 311 250 271 230 244 277 289 296 293 273 269 282 285 286 280 282 284 278 272 271 268 253 244
29 27 24 21 16 14 12 8 5 1 358 355 353 348 340 328 326 333 329 331 327 328 357 360 57 252 283 234 271 266 287 301 291 296 266 270 276 275 283 276 269 255 253 252 257 245 245
25 22 20 17 14 11 9 7 5 2 358 355 352 349 345 341 336 336 337 326 323 318 297 328 274 264 251 261 303 292 289 286 299 289 277 246 243 246 247 245 257 272 283 286 284 292 293
20 19 17 14 11 7 5 5 4 2 359 356 353 351 352 351 346 344 359 330 347 321 274 289 274 260 295 286 283 292 291 299 295 263 262 262 235 240 256 265 277 274 272 277 281 288 278
16 13 11 9 6 4 2 1 2 2 2 357 354 353 357 354 0 356 352 340 352 316 309 284 265 274 279 279 287 291 308 301 273 258 262 261 251 256 261 249 261 276 279 276 278 280 278
13 10 7 4 3 2 1 0 0 1 359 357 353 352 354 352 345 339 337 343 333 322 286 268 261 284 317 306 280 297 301 289 279 281 285 278 282 291 283 268 255 253 259 271 277 282 279
11 8 5 2 360 360 359 358 358 358 357 356 354 352 354 356 351 336 345 333 330 318 274 139 173 88 305 295 291 286 296 286 295 283 287 282 293 284 273 271 272 276 267 273 295 269 265
7 7 5 2 359 358 358 357 356 353 352 355 355 350 0 5 358 350 335 330 325 313 269 12 337 296 293 307 298 337 326 247 264 279 286 280 284 280 275 274 280 277 290 274 283 272 277
3 2 1 0 360 358 357 357 354 354 352 353 352 345 356 354 335 326 327 324 318 243 337 343 357 336 331 303 347 345 333 312 294 290 285 285 276 268 265 260 256 267 264 264 256 269 260
358 357 357 355 356 356 355 355 355 353 351 349 348 345 9 20 335 329 324 318 265 269 357 6 336 337 312 306 345 346 338 328 296 292 281 296 297 286 300 297 252 337 283 267 231 216 248
353 353 353 352 352 353 353 352 351 352 351 347 348 358 1 11 323 322 322 282 277 353 339 340 335 317 315 355 348 340 341 326 342 331 303 280 303 1 1 21 348 304 268 226 283 248 293
350 349 348 349 349 351 351 351 350 352 352 344 347 346 347 340 329 322 304 331 346 331 335 335 329 321 341 326 350 348 339 324 347 26 336 313 273 327 306 300 277 248 236 300 285 276 272
346 346 345 346 347 348 350 352 353 352 354 350 344 345 266 337 323 322 290 280 319 353 340 338 326 326 319 343 340 338 328 312 331 70 11 286 289 285 291 292 270 246 255 216 196 258 264
343 344 344 343 344 347 350 352 352 350 355 355 356 311 11 346 321 291 309 356 335 341 343 325 321 317 318 326 329 320 304 302 335 329 330 302 225 281 302 247 263 228 218 211 252 244 269
338 341 341 341 341 345 349 352 353 349 351 0 351 331 346 348 334 360 352 332 317 311 315 321 316 313 318 317 322 318 280 297 320 269 266 262 277 277 286 281 271 272 232 231 227 247 240
332 333 339 339 341 345 348 350 354 358 353 350 326 313 5 345 350 327 335 329 325 324 321 331 315 312 305 313 308 279 287 303 297 322 241 195 236 299 297 297 45 273 240 230 243 258 257
325 331 336 337 340 343 345 347 351 353 352 344 310 321 341 331 351 341 334 316 319 333 338 327 313 314 313 326 314 302 316 304 302 217 273 163 235 231 266 282 303 291 264 262 243 252 263
324 327 326 330 331 334 338 340 345 347 358 351 335 349 360 318 323 316 298 307 322 332 330 324 325 320 319 310 307 321 315 316 329 94 125 236 262 274 274 270 271 273 279 273 257 246 254
312 316 318 318 321 322 328 332 337 346 352 350 351 338 322 306 322 308 315 346 327 323 324 325 321 313 309 314 333 321 315 305 311 157 261 223 273 296 290 285 272 265 25 1 348 318 306
306 305 310 312 315 312 319 325 335 343 0 337 335 325 311 296 329 323 329 321 322 329 325 318 308 312 324 337 322 306 289 279 257 163 238 240 291 297 281 310 308 89 50 5 310 294 288
307 306 307 310 313 312 311 315 324 327 344 332 318 324 302 290 308 315 312 328 321 321 303 309 319 331 335 326 313 311 335 53 135 199 160 239 287 265 288 303 307 76 9 343 297 290 307
305 306 307 310 310 308 307 308 310 314 322 320 321 306 288 280 307 302 322 321 315 321 319 316 333 347 335 322 324 334 328 348 13 254 157 209 274 275 278 311 276 29 337 326 324 297 261
307 307 309 311 315 314 310 303 297 302 308 309 310 276 251 283 262 315 305 310 320 319 314 322 324 335 325 321 326 337 326 332 329 319 324 341 307 262 299 301 303 352 335 327 314 259 335
314 315 313 312 316 318 315 306 296 297 302 312 302 298 249 261 283 302 301 303 306 303 295 308 343 318 347 331 336 336 322 344 344 324 332 334 346 325 324 298 91 5 347 325 19 318 316
313 315 317 313 312 318 319 315 297 294 300 308 298 293 265 251 291 281 292 302 296 288 286 325 326 3 323 352 344 346 326 322 314 313 322 326 335 345 328 306 334 7 348 17 295 304 318
310 311 312 312 312 317 323 322 308 297 293 294 290 287 286 243 276 298 297 293 263 266 271 285 290 311 334 336 343 314 309 302 319 312 341 348 25 312 294 316 351 350 324 327 332 315 327